Time,TemperatureF,DewpointF,PressureIn,WindDirection,WindDirectionDegrees,WindSpeedMPH,WindSpeedGustMPH,Humidity,HourlyPrecipIn,Conditions,Clouds,dailyrainin,SoftwareType,DateUTC
2013-11-01 00:00:00,80.0,73.3,30.02,South,188,1.1,6.6,80,0.00,,---,0.00,VWS V13.01,2013-11-01 04:00:00,
2013-11-01 00:01:00,79.8,73.0,30.02,South,176,1.8,1.9,80,0.00,,---,0.00,VWS V13.01,2013-11-01 04:01:00,
2013-11-01 00:03:00,79.8,72.9,30.02,South,186,0.8,3.2,80,0.00,,---,0.00,VWS V13.01,2013-11-01 04:03:00,
2013-11-01 00:04:00,80.0,73.1,30.02,SSW,198,4.4,5.3,79,0.00,,---,0.00,VWS V13.01,2013-11-01 04:04:00,
2013-11-01 00:06:00,79.9,72.9,30.02,SSE,153,2.7,3.9,79,0.00,,---,0.00,VWS V13.01,2013-11-01 04:06:00,
2013-11-01 00:08:00,79.9,72.9,30.02,East,86,1.8,5.2,79,0.00,,---,0.00,VWS V13.01,2013-11-01 04:08:00,
2013-11-01 00:13:00,80.0,72.7,30.02,South,174,2.7,4.2,78,0.00,,---,0.00,VWS V13.01,2013-11-01 04:13:00,
2013-11-01 00:18:00,79.9,72.6,30.02,SE,134,3.9,7.4,78,0.00,,---,0.00,VWS V13.01,2013-11-01 04:18:00,
2013-11-01 00:23:00,79.9,72.6,30.02,South,170,5.3,10.9,78,0.00,,---,0.00,VWS V13.01,2013-11-01 04:23:00,
2013-11-01 00:28:00,80.0,72.6,30.01,SSE,158,3.7,3.7,78,0.00,,---,0.00,VWS V13.01,2013-11-01 04:28:00,
2013-11-01 00:33:00,80.1,72.7,30.01,SSE,165,5.1,5.8,78,0.00,,---,0.00,VWS V13.01,2013-11-01 04:33:00,
2013-11-01 00:38:00,79.9,72.5,30.01,SSE,165,10.5,10.5,78,0.00,,---,0.00,VWS V13.01,2013-11-01 04:38:00,
2013-11-01 00:43:00,80.0,72.7,30.01,South,183,4.0,4.0,78,0.00,,---,0.00,VWS V13.01,2013-11-01 04:43:00,
2013-11-01 00:48:00,79.9,72.7,30.01,South,169,4.3,9.4,79,0.00,,---,0.00,VWS V13.01,2013-11-01 04:48:00,
2013-11-01 00:53:00,80.1,72.8,30.01,South,169,5.5,6.5,79,0.00,,---,0.00,VWS V13.01,2013-11-01 04:53:00,
2013-11-01 00:58:00,79.9,72.6,30.01,South,173,8.9,12.7,78,0.00,,---,0.00,VWS V13.01,2013-11-01 04:58:00,
2013-11-01 01:03:00,80.0,72.7,30.01,SE,124,1.4,4.7,78,0.00,,---,0.00,VWS V13.01,2013-11-01 05:03:00,
2013-11-01 01:08:00,80.0,72.7,30.01,ESE,122,2.0,12.1,78,0.00,,---,0.00,VWS V13.01,2013-11-01 05:08:00,
2013-11-01 01:13:00,80.0,72.4,30.00,SE,143,1.7,4.9,78,0.00,,---,0.00,VWS V13.01,2013-11-01 05:13:00,
2013-11-01 01:19:00,80.1,72.6,30.00,SSE,162,2.5,5.1,78,0.00,,---,0.00,VWS V13.01,2013-11-01 05:19:00,
2013-11-01 01:24:00,80.0,72.5,30.00,SSW,193,5.2,6.5,78,0.00,,---,0.00,VWS V13.01,2013-11-01 05:24:00,
2013-11-01 01:29:00,79.9,72.5,30.00,SSE,165,7.5,7.5,78,0.00,,---,0.00,VWS V13.01,2013-11-01 05:29:00,
2013-11-01 01:34:00,79.8,72.4,30.00,SE,127,7.7,12.4,78,0.00,,---,0.00,VWS V13.01,2013-11-01 05:34:00,
2013-11-01 01:39:00,80.0,72.7,30.00,South,180,4.9,4.9,78,0.00,,---,0.00,VWS V13.01,2013-11-01 05:39:00,
2013-11-01 01:44:00,80.0,72.7,30.00,SSE,165,4.3,4.3,78,0.00,,---,0.00,VWS V13.01,2013-11-01 05:44:00,
2013-11-01 01:46:00,79.8,72.6,30.00,South,181,8.1,8.1,79,0.00,,---,0.00,VWS V13.01,2013-11-01 05:46:00,
2013-11-01 01:51:00,79.8,72.6,30.00,SE,141,4.5,8.7,79,0.00,,---,0.00,VWS V13.01,2013-11-01 05:51:00,
2013-11-01 01:56:00,79.7,72.4,30.00,SSE,166,4.6,9.5,78,0.00,,---,0.00,VWS V13.01,2013-11-01 05:56:00,
2013-11-01 02:01:00,79.7,72.3,30.00,SSE,152,4.0,11.6,78,0.00,,---,0.00,VWS V13.01,2013-11-01 06:01:00,
2013-11-01 02:06:00,79.9,72.6,30.00,SSE,160,2.5,2.8,78,0.00,,---,0.00,VWS V13.01,2013-11-01 06:06:00,
2013-11-01 02:11:00,79.9,72.7,30.00,South,172,3.4,4.0,79,0.00,,---,0.00,VWS V13.01,2013-11-01 06:11:00,
2013-11-01 02:16:00,79.7,72.6,30.00,SE,125,2.6,5.0,79,0.00,,---,0.00,VWS V13.01,2013-11-01 06:16:00,
2013-11-01 02:21:00,79.7,72.6,30.00,SE,146,3.5,4.8,79,0.00,,---,0.00,VWS V13.01,2013-11-01 06:21:00,
2013-11-01 02:26:00,79.8,72.6,29.99,SSE,153,2.5,8.3,79,0.00,,---,0.00,VWS V13.01,2013-11-01 06:26:00,
2013-11-01 02:31:00,79.7,72.4,29.99,SE,138,6.1,7.3,78,0.00,,---,0.00,VWS V13.01,2013-11-01 06:31:00,
2013-11-01 02:36:00,79.9,72.6,29.99,SSE,167,3.7,7.1,78,0.00,,---,0.00,VWS V13.01,2013-11-01 06:36:00,
2013-11-01 02:41:00,79.8,72.5,29.99,SSE,153,1.6,3.1,78,0.00,,---,0.00,VWS V13.01,2013-11-01 06:41:00,
2013-11-01 02:46:00,79.9,72.2,29.99,South,180,1.6,9.1,77,0.00,,---,0.00,VWS V13.01,2013-11-01 06:46:00,
2013-11-01 02:52:00,79.5,71.8,29.99,South,191,2.9,7.1,77,0.00,,---,0.00,VWS V13.01,2013-11-01 06:52:00,
2013-11-01 02:57:00,79.8,72.2,29.99,SSE,167,0.2,2.9,78,0.00,,---,0.00,VWS V13.01,2013-11-01 06:57:00,
2013-11-01 03:02:00,79.5,71.9,29.99,SSE,165,3.9,5.0,78,0.00,,---,0.00,VWS V13.01,2013-11-01 07:02:00,
2013-11-01 03:07:00,79.4,71.9,29.98,South,179,6.0,9.3,78,0.00,,---,0.00,VWS V13.01,2013-11-01 07:07:00,
2013-11-01 03:12:00,79.7,72.2,29.98,SSE,149,1.1,1.4,78,0.00,,---,0.00,VWS V13.01,2013-11-01 07:12:00,
2013-11-01 03:17:00,79.5,71.9,29.98,SSE,166,2.1,5.9,78,0.00,,---,0.00,VWS V13.01,2013-11-01 07:17:00,
2013-11-01 03:22:00,79.3,71.7,29.98,SSW,204,3.8,6.8,78,0.00,,---,0.00,VWS V13.01,2013-11-01 07:22:00,
2013-11-01 03:27:00,79.4,71.8,29.98,SSE,153,2.7,4.2,78,0.00,,---,0.00,VWS V13.01,2013-11-01 07:27:00,
2013-11-01 03:32:00,79.3,71.7,29.98,SSE,165,3.1,6.1,78,0.00,,---,0.00,VWS V13.01,2013-11-01 07:32:00,
2013-11-01 03:37:00,79.4,71.9,29.98,SSE,165,4.2,7.4,78,0.00,,---,0.00,VWS V13.01,2013-11-01 07:37:00,
2013-11-01 03:42:00,79.5,72.0,29.98,SSW,201,4.1,4.5,78,0.00,,---,0.00,VWS V13.01,2013-11-01 07:42:00,
2013-11-01 03:47:00,79.4,72.0,29.98,SSE,160,5.9,7.8,78,0.00,,---,0.00,VWS V13.01,2013-11-01 07:47:00,
2013-11-01 03:52:00,79.4,72.0,29.98,South,190,6.2,7.7,78,0.00,,---,0.00,VWS V13.01,2013-11-01 07:52:00,
2013-11-01 03:57:00,79.4,72.0,29.97,South,172,0.0,1.2,78,0.00,,---,0.00,VWS V13.01,2013-11-01 07:57:00,
2013-11-01 04:02:00,79.4,72.2,29.97,SSE,148,2.8,4.4,79,0.00,,---,0.00,VWS V13.01,2013-11-01 08:02:00,
2013-11-01 04:07:00,79.5,72.3,29.97,SSW,200,1.6,4.8,79,0.00,,---,0.00,VWS V13.01,2013-11-01 08:07:00,
2013-11-01 04:12:00,79.4,72.0,29.97,SSW,201,4.5,6.0,78,0.00,,---,0.00,VWS V13.01,2013-11-01 08:12:00,
2013-11-01 04:17:00,79.4,72.0,29.97,SSE,149,6.9,6.9,78,0.00,,---,0.00,VWS V13.01,2013-11-01 08:17:00,
2013-11-01 04:22:00,79.4,72.1,29.97,South,174,4.3,6.6,78,0.00,,---,0.00,VWS V13.01,2013-11-01 08:22:00,
2013-11-01 04:27:00,79.3,72.0,29.97,SSW,198,2.4,5.7,78,0.00,,---,0.00,VWS V13.01,2013-11-01 08:27:00,
2013-11-01 04:32:00,79.2,72.1,29.97,South,183,3.2,6.3,79,0.00,,---,0.00,VWS V13.01,2013-11-01 08:32:00,
2013-11-01 04:37:00,79.1,71.8,29.97,SSE,163,8.0,8.0,78,0.00,,---,0.00,VWS V13.01,2013-11-01 08:37:00,
2013-11-01 04:42:00,79.2,71.7,29.97,South,191,3.4,5.8,78,0.00,,---,0.00,VWS V13.01,2013-11-01 08:42:00,
2013-11-01 04:47:00,79.1,71.5,29.97,South,172,0.6,5.0,78,0.00,,---,0.00,VWS V13.01,2013-11-01 08:47:00,
2013-11-01 04:52:00,79.3,71.8,29.97,SE,134,2.9,5.8,78,0.00,,---,0.00,VWS V13.01,2013-11-01 08:52:00,
2013-11-01 04:58:00,79.3,71.8,29.97,SSE,148,4.5,4.5,78,0.00,,---,0.00,VWS V13.01,2013-11-01 08:58:00,
2013-11-01 05:03:00,79.3,71.8,29.97,West,269,4.6,6.7,78,0.00,,---,0.00,VWS V13.01,2013-11-01 09:03:00,
2013-11-01 05:08:00,79.4,71.9,29.98,SE,128,0.9,4.2,78,0.00,,---,0.00,VWS V13.01,2013-11-01 09:08:00,
2013-11-01 05:13:00,79.3,71.8,29.97,SSE,155,0.6,3.9,78,0.00,,---,0.00,VWS V13.01,2013-11-01 09:13:00,
2013-11-01 05:18:00,79.1,71.6,29.97,SSW,197,4.2,4.3,78,0.00,,---,0.00,VWS V13.01,2013-11-01 09:18:00,
2013-11-01 05:23:00,79.2,71.6,29.97,SSW,202,1.6,2.6,78,0.00,,---,0.00,VWS V13.01,2013-11-01 09:23:00,
2013-11-01 05:28:00,79.1,71.4,29.98,South,176,3.5,5.8,77,0.00,,---,0.00,VWS V13.01,2013-11-01 09:28:00,
2013-11-01 05:33:00,79.2,71.7,29.98,South,173,1.6,2.2,78,0.00,,---,0.00,VWS V13.01,2013-11-01 09:33:00,
2013-11-01 05:38:00,79.2,71.8,29.98,SSE,148,1.0,1.8,78,0.00,,---,0.00,VWS V13.01,2013-11-01 09:38:00,
2013-11-01 05:43:00,79.2,71.7,29.98,South,176,3.1,3.1,78,0.00,,---,0.00,VWS V13.01,2013-11-01 09:43:00,
2013-11-01 05:48:00,79.2,71.7,29.98,SSE,150,0.7,1.0,78,0.00,,---,0.00,VWS V13.01,2013-11-01 09:48:00,
2013-11-01 05:53:00,79.0,71.7,29.98,South,173,4.2,6.8,78,0.00,,---,0.00,VWS V13.01,2013-11-01 09:53:00,
2013-11-01 05:58:00,79.1,71.8,29.98,South,183,5.5,6.3,78,0.00,,---,0.00,VWS V13.01,2013-11-01 09:58:00,
2013-11-01 06:03:00,79.0,71.7,29.99,South,188,5.2,5.2,78,0.00,,---,0.00,VWS V13.01,2013-11-01 10:03:00,
2013-11-01 06:08:00,78.9,71.6,29.99,SSE,160,1.5,4.6,78,0.00,,---,0.00,VWS V13.01,2013-11-01 10:08:00,
2013-11-01 06:13:00,79.0,71.8,29.98,SSE,162,3.7,5.6,78,0.00,,---,0.00,VWS V13.01,2013-11-01 10:13:00,
2013-11-01 06:18:00,79.2,71.9,29.98,SE,142,3.2,4.3,78,0.00,,---,0.00,VWS V13.01,2013-11-01 10:18:00,
2013-11-01 06:23:00,79.0,71.7,29.98,SSE,167,4.2,6.2,78,0.00,,---,0.00,VWS V13.01,2013-11-01 10:23:00,
2013-11-01 06:28:00,79.0,71.6,29.98,South,170,2.7,6.6,78,0.00,,---,0.00,VWS V13.01,2013-11-01 10:28:00,
2013-11-01 06:33:00,79.2,71.9,29.98,SSW,197,0.6,2.6,78,0.00,,---,0.00,VWS V13.01,2013-11-01 10:33:00,
2013-11-01 06:38:00,79.2,71.9,29.99,South,184,1.1,5.8,78,0.00,,---,0.00,VWS V13.01,2013-11-01 10:38:00,
2013-11-01 06:43:00,79.0,71.8,29.99,SSE,165,4.5,4.9,78,0.00,,---,0.00,VWS V13.01,2013-11-01 10:43:00,
2013-11-01 06:48:00,79.0,71.8,29.99,South,186,3.9,9.4,78,0.00,,---,0.00,VWS V13.01,2013-11-01 10:48:00,
2013-11-01 06:53:00,79.0,71.7,29.99,SSE,162,7.7,7.8,78,0.00,,---,0.00,VWS V13.01,2013-11-01 10:53:00,
2013-11-01 06:59:00,79.1,71.7,29.99,South,172,2.1,2.5,78,0.00,,---,0.00,VWS V13.01,2013-11-01 10:59:00,
2013-11-01 07:04:00,79.0,71.6,30.00,South,181,8.0,9.4,78,0.00,,---,0.00,VWS V13.01,2013-11-01 11:04:00,
2013-11-01 07:09:00,79.0,71.6,30.00,SSW,193,2.6,3.4,78,0.00,,---,0.00,VWS V13.01,2013-11-01 11:09:00,
2013-11-01 07:14:00,79.2,71.9,30.00,South,169,2.1,4.2,78,0.00,,---,0.00,VWS V13.01,2013-11-01 11:14:00,
2013-11-01 07:19:00,79.0,71.7,30.00,SE,136,1.4,2.9,78,0.00,,---,0.00,VWS V13.01,2013-11-01 11:19:00,
2013-11-01 07:24:00,79.1,71.8,30.00,SSE,160,1.5,2.2,78,0.00,,---,0.00,VWS V13.01,2013-11-01 11:24:00,
2013-11-01 07:29:00,78.9,71.6,30.00,SSE,167,2.8,5.0,78,0.00,,---,0.00,VWS V13.01,2013-11-01 11:29:00,
2013-11-01 07:34:00,79.0,71.7,30.00,South,172,0.0,0.9,78,0.00,,---,0.00,VWS V13.01,2013-11-01 11:34:00,
2013-11-01 07:39:00,78.9,71.6,30.00,SSW,212,4.3,5.2,78,0.00,,---,0.00,VWS V13.01,2013-11-01 11:39:00,
2013-11-01 07:44:00,79.0,71.8,30.00,SSE,155,1.1,2.7,79,0.00,,---,0.00,VWS V13.01,2013-11-01 11:44:00,
2013-11-01 07:49:00,79.2,72.1,30.00,South,174,6.3,6.3,79,0.00,,---,0.00,VWS V13.01,2013-11-01 11:49:00,
2013-11-01 07:54:00,79.0,71.9,30.01,South,190,2.5,2.5,79,0.00,,---,0.00,VWS V13.01,2013-11-01 11:54:00,
2013-11-01 07:59:00,79.0,71.9,30.01,SSE,160,2.9,3.8,79,0.00,,---,0.00,VWS V13.01,2013-11-01 11:59:00,
2013-11-01 08:04:00,79.2,72.1,30.01,South,190,3.5,5.5,79,0.00,,---,0.00,VWS V13.01,2013-11-01 12:04:00,
2013-11-01 08:09:00,79.2,72.1,30.01,South,170,0.6,2.3,79,0.00,,---,0.00,VWS V13.01,2013-11-01 12:09:00,
2013-11-01 08:14:00,79.4,72.2,30.01,SSE,159,2.2,3.2,79,0.00,,---,0.00,VWS V13.01,2013-11-01 12:14:00,
2013-11-01 08:19:00,79.4,72.2,30.02,SSE,160,4.1,6.4,79,0.00,,---,0.00,VWS V13.01,2013-11-01 12:19:00,
2013-11-01 08:24:00,79.7,72.4,30.02,SE,143,1.6,4.4,78,0.00,,---,0.00,VWS V13.01,2013-11-01 12:24:00,
2013-11-01 08:29:00,79.8,72.4,30.02,SSW,205,2.7,5.7,78,0.00,,---,0.00,VWS V13.01,2013-11-01 12:29:00,
2013-11-01 08:34:00,80.0,72.5,30.02,SSE,148,1.6,6.2,78,0.00,,---,0.00,VWS V13.01,2013-11-01 12:34:00,
2013-11-01 08:39:00,80.1,72.5,30.02,ESE,111,1.2,3.2,78,0.00,,---,0.00,VWS V13.01,2013-11-01 12:39:00,
2013-11-01 08:44:00,80.3,72.5,30.02,SSE,150,1.1,2.9,77,0.00,,---,0.00,VWS V13.01,2013-11-01 12:44:00,
2013-11-01 08:49:00,80.3,72.6,30.02,SSE,149,2.1,3.5,77,0.00,,---,0.00,VWS V13.01,2013-11-01 12:49:00,
2013-11-01 08:54:00,80.4,72.5,30.02,SE,141,1.4,2.9,77,0.00,,---,0.00,VWS V13.01,2013-11-01 12:54:00,
2013-11-01 09:00:00,80.5,72.5,30.02,SSW,212,2.2,2.9,77,0.00,,---,0.00,VWS V13.01,2013-11-01 13:00:00,
2013-11-01 09:05:00,80.7,72.4,30.02,SSW,202,1.9,5.4,76,0.00,,---,0.00,VWS V13.01,2013-11-01 13:05:00,
2013-11-01 09:10:00,81.1,72.5,30.02,SW,235,1.9,6.0,75,0.00,,---,0.00,VWS V13.01,2013-11-01 13:10:00,
2013-11-01 09:15:00,81.3,72.6,30.02,SE,132,1.0,2.2,75,0.00,,---,0.00,VWS V13.01,2013-11-01 13:15:00,
2013-11-01 09:20:00,81.4,72.4,30.02,SSE,166,6.4,6.6,74,0.00,,---,0.00,VWS V13.01,2013-11-01 13:20:00,
2013-11-01 09:25:00,81.4,72.6,30.02,SE,142,2.1,3.0,75,0.00,,---,0.00,VWS V13.01,2013-11-01 13:25:00,
2013-11-01 09:30:00,81.4,72.6,30.02,South,169,3.5,3.9,75,0.00,,---,0.00,VWS V13.01,2013-11-01 13:30:00,
2013-11-01 09:35:00,81.8,72.9,30.02,SSW,194,2.1,3.0,75,0.00,,---,0.00,VWS V13.01,2013-11-01 13:35:00,
2013-11-01 09:40:00,82.5,73.0,30.02,South,181,1.1,3.1,73,0.00,,---,0.00,VWS V13.01,2013-11-01 13:40:00,
2013-11-01 09:45:00,83.0,72.8,30.02,SE,125,2.2,6.7,72,0.00,,---,0.00,VWS V13.01,2013-11-01 13:45:00,
2013-11-01 09:50:00,83.3,72.9,30.02,East,89,0.7,4.6,71,0.00,,---,0.00,VWS V13.01,2013-11-01 13:50:00,
2013-11-01 09:55:00,83.4,73.0,30.02,SSE,165,3.3,4.8,71,0.00,,---,0.00,VWS V13.01,2013-11-01 13:55:00,
2013-11-01 10:00:00,83.7,72.9,30.02,SE,136,1.5,4.3,70,0.00,,---,0.00,VWS V13.01,2013-11-01 14:00:00,
2013-11-01 10:05:00,83.8,73.1,30.02,SSW,205,6.7,8.6,70,0.00,,---,0.00,VWS V13.01,2013-11-01 14:05:00,
2013-11-01 10:10:00,84.1,73.3,30.02,SE,125,4.5,7.5,70,0.00,,---,0.00,VWS V13.01,2013-11-01 14:10:00,
2013-11-01 10:15:00,84.3,73.1,30.02,South,176,8.4,9.4,69,0.00,,---,0.00,VWS V13.01,2013-11-01 14:15:00,
2013-11-01 10:20:00,84.3,72.8,30.02,South,184,7.0,7.6,68,0.00,,---,0.00,VWS V13.01,2013-11-01 14:20:00,
2013-11-01 10:25:00,84.1,72.7,30.02,SSE,165,4.0,7.5,69,0.00,,---,0.00,VWS V13.01,2013-11-01 14:25:00,
2013-11-01 10:30:00,84.5,73.3,30.02,SE,145,3.5,3.7,69,0.00,,---,0.00,VWS V13.01,2013-11-01 14:30:00,
2013-11-01 10:35:00,84.5,73.5,30.02,East,90,5.7,5.7,70,0.00,,---,0.00,VWS V13.01,2013-11-01 14:35:00,
2013-11-01 10:40:00,83.9,73.1,30.02,SSE,163,6.6,7.5,70,0.00,,---,0.00,VWS V13.01,2013-11-01 14:40:00,
2013-11-01 10:45:00,83.5,73.4,30.02,SW,215,4.9,11.2,72,0.00,,---,0.00,VWS V13.01,2013-11-01 14:45:00,
2013-11-01 10:50:00,83.0,73.5,30.02,SSE,153,4.5,8.8,73,0.00,,---,0.00,VWS V13.01,2013-11-01 14:50:00,
2013-11-01 10:55:00,82.6,73.1,30.01,SSW,198,4.6,8.1,73,0.00,,---,0.00,VWS V13.01,2013-11-01 14:55:00,
2013-11-01 11:01:00,82.6,73.4,30.01,SE,139,1.2,2.2,74,0.00,,---,0.00,VWS V13.01,2013-11-01 15:01:00,
2013-11-01 11:06:00,82.7,73.6,30.01,ESE,118,1.6,4.7,74,0.00,,---,0.00,VWS V13.01,2013-11-01 15:06:00,
2013-11-01 11:11:00,82.7,72.6,30.01,SE,142,2.7,3.5,72,0.00,,---,0.00,VWS V13.01,2013-11-01 15:11:00,
2013-11-01 11:16:00,82.8,71.5,30.01,NE,42,1.7,3.1,69,0.00,,---,0.00,VWS V13.01,2013-11-01 15:16:00,
2013-11-01 11:21:00,83.6,72.4,30.01,East,94,3.2,5.0,69,0.00,,---,0.00,VWS V13.01,2013-11-01 15:21:00,
2013-11-01 11:26:00,84.0,72.4,30.00,SE,124,4.7,7.0,68,0.00,,---,0.00,VWS V13.01,2013-11-01 15:26:00,
2013-11-01 11:31:00,84.3,72.9,30.00,East,98,1.8,5.3,69,0.00,,---,0.00,VWS V13.01,2013-11-01 15:31:00,
2013-11-01 11:36:00,84.8,73.1,30.00,ESE,107,1.2,2.0,68,0.00,,---,0.00,VWS V13.01,2013-11-01 15:36:00,
2013-11-01 11:41:00,85.2,72.8,30.00,East,79,3.0,5.2,66,0.00,,---,0.00,VWS V13.01,2013-11-01 15:41:00,
2013-11-01 11:46:00,85.1,73.4,30.00,South,174,8.3,8.3,68,0.00,,---,0.00,VWS V13.01,2013-11-01 15:46:00,
2013-11-01 11:51:00,85.5,73.4,30.00,SE,125,2.2,2.3,67,0.00,,---,0.00,VWS V13.01,2013-11-01 15:51:00,
2013-11-01 11:56:00,85.8,73.1,30.00,South,173,3.9,4.4,66,0.00,,---,0.00,VWS V13.01,2013-11-01 15:56:00,
2013-11-01 12:01:00,85.4,73.8,29.99,SE,124,7.0,7.5,68,0.00,,---,0.00,VWS V13.01,2013-11-01 16:01:00,
2013-11-01 12:06:00,84.8,73.7,29.99,SE,138,2.2,3.5,70,0.00,,---,0.00,VWS V13.01,2013-11-01 16:06:00,
2013-11-01 12:11:00,84.5,73.4,29.99,SSE,167,7.1,9.4,70,0.00,,---,0.00,VWS V13.01,2013-11-01 16:11:00,
2013-11-01 12:16:00,84.6,73.2,29.99,WSW,238,3.3,6.7,69,0.00,,---,0.00,VWS V13.01,2013-11-01 16:16:00,
2013-11-01 12:21:00,85.2,73.4,29.99,ESE,117,8.0,8.0,68,0.00,,---,0.00,VWS V13.01,2013-11-01 16:21:00,
2013-11-01 12:26:00,85.0,74.0,29.98,SE,139,2.3,5.7,70,0.00,,---,0.00,VWS V13.01,2013-11-01 16:26:00,
2013-11-01 12:31:00,85.0,74.4,29.98,ENE,72,3.4,5.3,71,0.00,,---,0.00,VWS V13.01,2013-11-01 16:31:00,
2013-11-01 12:36:00,85.0,74.0,29.98,East,90,5.2,6.6,70,0.00,,---,0.00,VWS V13.01,2013-11-01 16:36:00,
2013-11-01 12:41:00,84.9,73.7,29.98,SSW,193,2.0,4.9,69,0.00,,---,0.00,VWS V13.01,2013-11-01 16:41:00,
2013-11-01 12:46:00,85.1,73.2,29.97,SE,145,1.9,5.4,68,0.00,,---,0.00,VWS V13.01,2013-11-01 16:46:00,
2013-11-01 12:51:00,85.5,73.0,29.97,ESE,121,3.0,9.1,66,0.00,,---,0.00,VWS V13.01,2013-11-01 16:51:00,
2013-11-01 12:56:00,85.9,71.8,29.97,SSE,152,7.3,8.5,63,0.00,,---,0.00,VWS V13.01,2013-11-01 16:56:00,
2013-11-01 13:02:00,86.2,72.5,29.96,South,183,7.1,10.6,64,0.00,,---,0.00,VWS V13.01,2013-11-01 17:02:00,
2013-11-01 13:07:00,86.4,71.8,29.96,SSW,207,8.6,9.8,62,0.00,,---,0.00,VWS V13.01,2013-11-01 17:07:00,
2013-11-01 13:12:00,86.4,71.1,29.96,SSE,163,7.1,8.8,60,0.00,,---,0.00,VWS V13.01,2013-11-01 17:12:00,
2013-11-01 13:17:00,86.9,72.1,29.95,South,183,5.9,5.9,62,0.00,,---,0.00,VWS V13.01,2013-11-01 17:17:00,
2013-11-01 13:22:00,86.5,70.9,29.95,SE,139,3.8,3.8,60,0.00,,---,0.00,VWS V13.01,2013-11-01 17:22:00,
2013-11-01 13:27:00,86.4,70.9,29.95,SSE,165,3.5,6.8,60,0.00,,---,0.00,VWS V13.01,2013-11-01 17:27:00,
2013-11-01 13:32:00,87.1,71.0,29.95,SSE,165,5.0,6.3,59,0.00,,---,0.00,VWS V13.01,2013-11-01 17:32:00,
2013-11-01 13:37:00,86.7,71.5,29.95,South,173,3.4,4.2,61,0.00,,---,0.00,VWS V13.01,2013-11-01 17:37:00,
2013-11-01 13:42:00,87.1,71.8,29.94,SE,132,7.7,7.7,60,0.00,,---,0.00,VWS V13.01,2013-11-01 17:42:00,
2013-11-01 13:47:00,86.7,71.5,29.94,SW,214,7.0,10.7,61,0.00,,---,0.00,VWS V13.01,2013-11-01 17:47:00,
2013-11-01 13:52:00,86.7,71.5,29.94,SSE,165,5.5,9.4,61,0.00,,---,0.00,VWS V13.01,2013-11-01 17:52:00,
2013-11-01 13:57:00,87.2,72.8,29.93,South,187,7.2,9.9,62,0.00,,---,0.00,VWS V13.01,2013-11-01 17:57:00,
2013-11-01 14:02:00,87.0,72.6,29.93,South,184,7.9,8.9,62,0.00,,---,0.00,VWS V13.01,2013-11-01 18:02:00,
2013-11-01 14:07:00,87.3,72.8,29.93,SSE,159,2.0,4.5,62,0.00,,---,0.00,VWS V13.01,2013-11-01 18:07:00,
2013-11-01 14:12:00,87.0,72.5,29.92,ESE,117,1.4,5.4,62,0.00,,---,0.00,VWS V13.01,2013-11-01 18:12:00,
2013-11-01 14:17:00,87.0,71.8,29.92,SE,136,1.2,6.8,61,0.00,,---,0.00,VWS V13.01,2013-11-01 18:17:00,
2013-11-01 14:22:00,86.6,71.7,29.92,SSW,210,6.0,12.3,61,0.00,,---,0.00,VWS V13.01,2013-11-01 18:22:00,
2013-11-01 14:27:00,86.6,73.5,29.92,SSE,162,3.4,4.3,65,0.00,,---,0.00,VWS V13.01,2013-11-01 18:27:00,
2013-11-01 14:32:00,86.6,73.5,29.92,ENE,66,1.8,8.3,65,0.00,,---,0.00,VWS V13.01,2013-11-01 18:32:00,
2013-11-01 14:37:00,86.4,73.2,29.92,WSW,256,1.9,12.0,65,0.00,,---,0.00,VWS V13.01,2013-11-01 18:37:00,
2013-11-01 14:42:00,85.6,72.4,29.91,South,184,3.7,11.3,65,0.00,,---,0.00,VWS V13.01,2013-11-01 18:42:00,
2013-11-01 14:47:00,85.8,72.6,29.91,South,187,3.3,9.9,65,0.00,,---,0.00,VWS V13.01,2013-11-01 18:47:00,
2013-11-01 14:52:00,85.9,72.8,29.91,SSW,194,2.5,10.4,65,0.00,,---,0.00,VWS V13.01,2013-11-01 18:52:00,
2013-11-01 14:58:00,86.3,73.3,29.91,South,191,5.5,6.1,65,0.00,,---,0.00,VWS V13.01,2013-11-01 18:58:00,
2013-11-01 15:03:00,86.4,72.7,29.91,SE,127,3.7,11.4,64,0.00,,---,0.00,VWS V13.01,2013-11-01 19:03:00,
2013-11-01 15:08:00,86.4,72.9,29.90,SSE,159,5.5,10.4,64,0.00,,---,0.00,VWS V13.01,2013-11-01 19:08:00,
2013-11-01 15:13:00,86.6,73.8,29.90,SE,128,4.7,6.3,66,0.00,,---,0.00,VWS V13.01,2013-11-01 19:13:00,
2013-11-01 15:18:00,85.7,73.4,29.90,South,172,8.4,8.8,67,0.00,,---,0.00,VWS V13.01,2013-11-01 19:18:00,
2013-11-01 15:23:00,85.8,72.8,29.90,SSW,197,5.8,8.3,65,0.00,,---,0.00,VWS V13.01,2013-11-01 19:23:00,
2013-11-01 15:28:00,85.2,71.7,29.90,SSE,159,7.4,10.5,64,0.00,,---,0.00,VWS V13.01,2013-11-01 19:28:00,
2013-11-01 15:33:00,85.5,72.8,29.90,SSE,165,4.1,12.5,66,0.00,,---,0.00,VWS V13.01,2013-11-01 19:33:00,
2013-11-01 15:38:00,85.8,73.8,29.90,South,191,5.4,5.4,68,0.00,,---,0.00,VWS V13.01,2013-11-01 19:38:00,
2013-11-01 15:43:00,85.7,72.5,29.90,SSE,165,5.7,9.6,65,0.00,,---,0.00,VWS V13.01,2013-11-01 19:43:00,
2013-11-01 15:48:00,85.7,72.4,29.89,SE,132,7.2,12.4,65,0.00,,---,0.00,VWS V13.01,2013-11-01 19:48:00,
2013-11-01 15:53:00,85.5,72.4,29.89,South,172,6.9,10.9,65,0.00,,---,0.00,VWS V13.01,2013-11-01 19:53:00,
2013-11-01 15:58:00,85.6,72.5,29.89,South,191,7.1,9.5,65,0.00,,---,0.00,VWS V13.01,2013-11-01 19:58:00,
2013-11-01 16:03:00,85.9,73.2,29.89,SSE,152,4.3,4.3,66,0.00,,---,0.00,VWS V13.01,2013-11-01 20:03:00,
2013-11-01 16:08:00,86.1,73.2,29.89,West,263,2.2,8.4,66,0.00,,---,0.00,VWS V13.01,2013-11-01 20:08:00,
2013-11-01 16:13:00,85.8,72.7,29.89,SE,128,6.2,11.6,65,0.00,,---,0.00,VWS V13.01,2013-11-01 20:13:00,
2013-11-01 16:18:00,85.6,72.9,29.89,West,274,3.8,7.6,66,0.00,,---,0.00,VWS V13.01,2013-11-01 20:18:00,
2013-11-01 16:23:00,85.9,72.8,29.89,SE,142,1.2,10.6,65,0.00,,---,0.00,VWS V13.01,2013-11-01 20:23:00,
2013-11-01 16:28:00,85.9,72.4,29.89,South,177,7.6,10.8,64,0.00,,---,0.00,VWS V13.01,2013-11-01 20:28:00,
2013-11-01 16:33:00,85.7,72.5,29.89,South,181,4.1,8.0,65,0.00,,---,0.00,VWS V13.01,2013-11-01 20:33:00,
2013-11-01 16:38:00,85.8,72.7,29.88,SE,139,3.5,6.5,65,0.00,,---,0.00,VWS V13.01,2013-11-01 20:38:00,
2013-11-01 16:43:00,85.8,72.9,29.88,SE,146,3.4,3.9,65,0.00,,---,0.00,VWS V13.01,2013-11-01 20:43:00,
2013-11-01 16:48:00,85.8,72.9,29.88,SE,141,2.2,6.0,66,0.00,,---,0.00,VWS V13.01,2013-11-01 20:48:00,
2013-11-01 16:53:00,86.0,73.6,29.88,SE,141,2.0,5.0,66,0.00,,---,0.00,VWS V13.01,2013-11-01 20:53:00,
2013-11-01 16:58:00,85.3,73.0,29.88,SE,124,0.7,8.6,67,0.00,,---,0.00,VWS V13.01,2013-11-01 20:58:00,
2013-11-01 17:03:00,85.1,72.9,29.88,SSE,165,4.2,6.3,67,0.00,,---,0.00,VWS V13.01,2013-11-01 21:03:00,
2013-11-01 17:08:00,85.3,73.2,29.88,SSE,166,5.9,8.0,67,0.00,,---,0.00,VWS V13.01,2013-11-01 21:08:00,
2013-11-01 17:13:00,85.2,73.1,29.88,SSE,153,4.1,6.5,67,0.00,,---,0.00,VWS V13.01,2013-11-01 21:13:00,
2013-11-01 17:18:00,84.8,73.0,29.88,South,177,8.1,8.1,68,0.00,,---,0.00,VWS V13.01,2013-11-01 21:18:00,
2013-11-01 17:23:00,84.4,72.9,29.88,SSW,204,2.7,8.8,68,0.00,,---,0.00,VWS V13.01,2013-11-01 21:23:00,
2013-11-01 17:28:00,84.5,72.9,29.88,SSE,165,4.3,5.1,68,0.00,,---,0.00,VWS V13.01,2013-11-01 21:28:00,
2013-11-01 17:33:00,84.6,72.9,29.88,South,187,5.2,9.5,68,0.00,,---,0.00,VWS V13.01,2013-11-01 21:33:00,
2013-11-01 17:38:00,84.5,72.8,29.88,SSE,165,5.2,8.2,68,0.00,,---,0.00,VWS V13.01,2013-11-01 21:38:00,
2013-11-01 17:43:00,84.4,72.8,29.88,SSE,153,5.7,6.4,68,0.00,,---,0.00,VWS V13.01,2013-11-01 21:43:00,
2013-11-01 17:48:00,83.6,72.5,29.89,SSE,156,5.2,8.8,69,0.02,,---,0.02,VWS V13.01,2013-11-01 21:48:00,
2013-11-01 17:53:00,83.4,72.6,29.88,SSE,166,9.0,10.4,70,0.02,,---,0.02,VWS V13.01,2013-11-01 21:53:00,
2013-11-01 17:58:00,83.2,72.4,29.88,SSE,165,7.1,11.7,70,0.02,,---,0.02,VWS V13.01,2013-11-01 21:58:00,
2013-11-01 18:03:00,83.2,72.8,29.88,South,191,2.5,4.6,71,0.05,,---,0.05,VWS V13.01,2013-11-01 22:03:00,
2013-11-01 18:08:00,83.1,72.6,29.89,ENE,69,0.9,3.7,71,0.05,,---,0.05,VWS V13.01,2013-11-01 22:08:00,
2013-11-01 18:13:00,82.7,72.1,29.89,South,190,4.0,9.4,70,0.05,,---,0.05,VWS V13.01,2013-11-01 22:13:00,
2013-11-01 18:18:00,82.6,72.3,29.89,SW,232,7.3,8.0,71,0.05,,---,0.05,VWS V13.01,2013-11-01 22:18:00,
2013-11-01 18:23:00,82.3,72.2,29.89,SSE,149,5.7,8.1,72,0.05,,---,0.05,VWS V13.01,2013-11-01 22:23:00,
2013-11-01 18:28:00,82.1,72.4,29.89,SSE,166,2.7,7.8,72,0.05,,---,0.05,VWS V13.01,2013-11-01 22:28:00,
2013-11-01 18:33:00,81.9,72.3,29.89,South,169,4.4,8.5,73,0.05,,---,0.05,VWS V13.01,2013-11-01 22:33:00,
2013-11-01 18:38:00,81.8,72.3,29.89,South,173,4.8,7.0,73,0.05,,---,0.05,VWS V13.01,2013-11-01 22:38:00,
2013-11-01 18:43:00,81.5,72.3,29.89,SSE,165,4.7,4.8,74,0.05,,---,0.05,VWS V13.01,2013-11-01 22:43:00,
2013-11-01 18:48:00,81.4,72.0,29.90,SSW,193,3.7,8.3,73,0.03,,---,0.05,VWS V13.01,2013-11-01 22:48:00,
2013-11-01 18:53:00,81.5,72.3,29.90,SE,136,3.6,7.2,74,0.03,,---,0.05,VWS V13.01,2013-11-01 22:53:00,
2013-11-01 18:58:00,81.3,72.3,29.90,SE,142,1.6,3.6,74,0.03,,---,0.05,VWS V13.01,2013-11-01 22:58:00,
2013-11-01 19:03:00,81.4,72.5,29.90,SW,228,3.0,6.0,74,0.00,,---,0.05,VWS V13.01,2013-11-01 23:03:00,
2013-11-01 19:08:00,81.4,72.6,29.90,SSW,195,3.6,5.8,75,0.00,,---,0.05,VWS V13.01,2013-11-01 23:08:00,
2013-11-01 19:13:00,81.1,72.3,29.91,SSE,156,1.9,5.8,75,0.00,,---,0.05,VWS V13.01,2013-11-01 23:13:00,
2013-11-01 19:18:00,81.0,72.3,29.90,South,183,2.6,8.1,75,0.00,,---,0.05,VWS V13.01,2013-11-01 23:18:00,
2013-11-01 19:23:00,81.0,72.4,29.90,South,187,4.5,4.5,75,0.00,,---,0.05,VWS V13.01,2013-11-01 23:23:00,
2013-11-01 19:28:00,80.8,72.3,29.91,SSE,165,1.8,3.1,75,0.00,,---,0.05,VWS V13.01,2013-11-01 23:28:00,
2013-11-01 19:33:00,80.8,72.3,29.91,SSE,167,0.2,1.7,76,0.00,,---,0.05,VWS V13.01,2013-11-01 23:33:00,
2013-11-01 19:38:00,80.7,72.1,29.91,South,191,2.2,6.3,75,0.00,,---,0.05,VWS V13.01,2013-11-01 23:38:00,
2013-11-01 19:43:00,81.0,72.3,29.91,SE,131,7.7,7.7,75,0.00,,---,0.05,VWS V13.01,2013-11-01 23:43:00,
2013-11-01 19:48:00,80.8,72.0,29.91,SE,141,3.5,3.6,75,0.00,,---,0.05,VWS V13.01,2013-11-01 23:48:00,
2013-11-01 19:53:00,80.7,72.0,29.91,SSW,197,3.5,5.5,75,0.00,,---,0.05,VWS V13.01,2013-11-01 23:53:00,
2013-11-01 19:58:00,80.5,71.8,29.91,South,190,2.6,3.9,75,0.00,,---,0.05,VWS V13.01,2013-11-01 23:58:00,
2013-11-01 20:03:00,80.6,71.8,29.92,South,191,1.4,5.8,75,0.00,,---,0.05,VWS V13.01,2013-11-02 00:03:00,
2013-11-01 20:08:00,80.4,71.5,29.92,SSW,202,3.2,4.3,74,0.00,,---,0.05,VWS V13.01,2013-11-02 00:08:00,
2013-11-01 20:13:00,80.4,71.5,29.92,South,174,2.7,3.9,74,0.00,,---,0.05,VWS V13.01,2013-11-02 00:13:00,
2013-11-01 20:18:00,80.4,71.6,29.92,SSE,163,3.2,4.7,75,0.00,,---,0.05,VWS V13.01,2013-11-02 00:18:00,
2013-11-01 20:23:00,80.4,71.7,29.92,South,191,3.0,3.7,75,0.00,,---,0.05,VWS V13.01,2013-11-02 00:23:00,
2013-11-01 20:28:00,80.4,71.8,29.92,SSE,152,0.7,3.9,75,0.00,,---,0.05,VWS V13.01,2013-11-02 00:28:00,
2013-11-01 20:33:00,80.4,72.1,29.92,South,177,3.0,3.4,76,0.00,,---,0.05,VWS V13.01,2013-11-02 00:33:00,
2013-11-01 20:38:00,80.5,72.3,29.92,South,172,1.3,5.2,76,0.00,,---,0.05,VWS V13.01,2013-11-02 00:38:00,
2013-11-01 20:43:00,80.3,72.2,29.93,SSE,160,4.6,5.5,76,0.00,,---,0.05,VWS V13.01,2013-11-02 00:43:00,
2013-11-01 20:48:00,80.2,72.1,29.93,SSE,150,1.3,3.2,76,0.00,,---,0.05,VWS V13.01,2013-11-02 00:48:00,
2013-11-01 20:53:00,80.1,72.0,29.93,South,180,3.5,5.6,76,0.00,,---,0.05,VWS V13.01,2013-11-02 00:53:00,
2013-11-01 20:58:00,80.2,72.0,29.93,SSW,204,3.7,5.1,76,0.00,,---,0.05,VWS V13.01,2013-11-02 00:58:00,
2013-11-01 21:03:00,80.1,72.0,29.93,SW,215,3.0,6.3,76,0.00,,---,0.05,VWS V13.01,2013-11-02 01:03:00,
2013-11-01 21:08:00,80.0,71.9,29.93,SSE,166,2.2,3.4,76,0.00,,---,0.05,VWS V13.01,2013-11-02 01:08:00,
2013-11-01 21:13:00,80.0,72.0,29.94,SSW,210,0.0,1.2,77,0.00,,---,0.05,VWS V13.01,2013-11-02 01:13:00,
2013-11-01 21:18:00,79.9,72.1,29.94,SSW,194,4.4,4.4,77,0.00,,---,0.05,VWS V13.01,2013-11-02 01:18:00,
2013-11-01 21:23:00,80.1,72.4,29.94,SSE,166,1.1,5.2,78,0.00,,---,0.05,VWS V13.01,2013-11-02 01:23:00,
2013-11-01 21:28:00,79.9,72.5,29.94,SW,217,2.7,5.3,78,0.00,,---,0.05,VWS V13.01,2013-11-02 01:28:00,
2013-11-01 21:33:00,79.8,72.4,29.94,South,172,1.8,3.9,78,0.00,,---,0.05,VWS V13.01,2013-11-02 01:33:00,
2013-11-01 21:38:00,79.8,72.5,29.94,SSE,166,0.0,3.1,78,0.00,,---,0.05,VWS V13.01,2013-11-02 01:38:00,
2013-11-01 21:43:00,79.7,72.4,29.94,South,191,3.4,3.4,78,0.00,,---,0.05,VWS V13.01,2013-11-02 01:43:00,
2013-11-01 21:48:00,79.8,72.5,29.94,SSW,208,0.5,2.5,78,0.00,,---,0.05,VWS V13.01,2013-11-02 01:48:00,
2013-11-01 21:53:00,79.5,72.3,29.94,SW,226,1.2,4.5,79,0.00,,---,0.05,VWS V13.01,2013-11-02 01:53:00,
2013-11-01 21:58:00,79.4,72.2,29.94,South,181,0.0,1.2,79,0.00,,---,0.05,VWS V13.01,2013-11-02 01:58:00,
2013-11-01 22:03:00,79.3,72.2,29.95,South,187,1.6,5.0,79,0.00,,---,0.05,VWS V13.01,2013-11-02 02:03:00,
2013-11-01 22:08:00,79.2,72.2,29.95,South,173,2.5,3.3,79,0.00,,---,0.05,VWS V13.01,2013-11-02 02:08:00,
2013-11-01 22:13:00,79.3,72.3,29.95,SW,233,1.8,2.9,79,0.00,,---,0.05,VWS V13.01,2013-11-02 02:13:00,
2013-11-01 22:18:00,79.1,72.2,29.95,SSE,155,0.4,1.7,80,0.00,,---,0.05,VWS V13.01,2013-11-02 02:18:00,
2013-11-01 22:23:00,79.2,72.4,29.95,SSW,200,2.5,3.0,80,0.00,,---,0.05,VWS V13.01,2013-11-02 02:23:00,
2013-11-01 22:28:00,79.1,72.4,29.95,SSW,197,1.1,2.3,80,0.00,,---,0.05,VWS V13.01,2013-11-02 02:28:00,
2013-11-01 22:33:00,79.2,72.5,29.95,SSW,200,2.5,4.2,80,0.00,,---,0.05,VWS V13.01,2013-11-02 02:33:00,
2013-11-01 22:38:00,79.2,72.5,29.95,WSW,256,1.3,4.0,80,0.00,,---,0.05,VWS V13.01,2013-11-02 02:38:00,
2013-11-01 22:43:00,79.1,72.4,29.95,SW,222,1.4,3.0,80,0.00,,---,0.05,VWS V13.01,2013-11-02 02:43:00,
2013-11-01 22:48:00,79.0,72.4,29.95,SW,236,1.6,1.8,80,0.00,,---,0.05,VWS V13.01,2013-11-02 02:48:00,
2013-11-01 22:53:00,78.8,72.2,29.95,SW,233,2.4,2.8,80,0.00,,---,0.05,VWS V13.01,2013-11-02 02:53:00,
2013-11-01 22:58:00,78.7,72.2,29.95,South,169,0.0,1.6,80,0.00,,---,0.05,VWS V13.01,2013-11-02 02:58:00,
2013-11-01 23:03:00,78.9,72.4,29.95,WSW,238,2.2,2.2,81,0.00,,---,0.05,VWS V13.01,2013-11-02 03:03:00,
2013-11-01 23:08:00,78.7,72.3,29.95,SW,232,2.6,2.6,81,0.00,,---,0.05,VWS V13.01,2013-11-02 03:08:00,
2013-11-01 23:13:00,78.4,72.1,29.95,SW,231,2.1,2.2,81,0.00,,---,0.05,VWS V13.01,2013-11-02 03:13:00,
2013-11-01 23:18:00,78.2,72.1,29.95,SW,222,0.0,0.9,82,0.00,,---,0.05,VWS V13.01,2013-11-02 03:18:00,
2013-11-01 23:23:00,78.2,72.2,29.95,SW,232,0.0,2.2,82,0.00,,---,0.05,VWS V13.01,2013-11-02 03:23:00,
2013-11-01 23:28:00,78.0,72.0,29.95,SW,233,2.3,2.5,82,0.00,,---,0.05,VWS V13.01,2013-11-02 03:28:00,
2013-11-01 23:33:00,78.0,72.1,29.95,SSW,208,0.0,1.3,82,0.00,,---,0.05,VWS V13.01,2013-11-02 03:33:00,
2013-11-01 23:38:00,77.8,71.9,29.95,SSW,202,0.0,0.7,82,0.00,,---,0.05,VWS V13.01,2013-11-02 03:38:00,
2013-11-01 23:43:00,77.8,72.1,29.95,SW,225,0.0,0.0,82,0.00,,---,0.05,VWS V13.01,2013-11-02 03:43:00,
2013-11-01 23:48:00,77.4,71.7,29.95,SW,225,0.0,0.0,83,0.00,,---,0.05,VWS V13.01,2013-11-02 03:48:00,
2013-11-01 23:53:00,77.4,71.8,29.95,WSW,252,1.7,1.9,83,0.00,,---,0.05,VWS V13.01,2013-11-02 03:53:00,